This demonstration page uses our WeatherBlox Daily Observations layout. Learn more.

Left ArrowRight Arrow

Hourly Observations for May 10, 2021

Temp ( °F °C ) Dew Point ( °F °C ) Humidity (%) Winds ( mph kmh ) Pressure ( in mb ) Visibility ( mi km ) Precip ( " mm )
12:30 am 00:30 Partly Cloudy 43 6.1 38 3.3 82 82 N N/A 30.05 1018 10 16 N/A
12:53 am 00:53 Clear 39 3.9 37 2.8 93 93 N 5 7 30.04 1017 10 16 N/A
1:53 am 01:53 Clear 38 3.3 36 2.2 93 93 NW 3 6 30.06 1018 10 16 N/A
2:53 am 02:53 Clear 38 3.3 37 2.8 97 97 N N/A 30.06 1018 10 16 N/A
3:53 am 03:53 Clear 37 2.8 36 2.2 96 96 N N/A 30.06 1018 10 16 N/A
4:53 am 04:53 Clear 35 1.7 34 1.1 96 96 N N/A 30.08 1019 10 16 N/A
5:26 am 05:26 Clear with Mist and Fog 36 2.2 35 1.7 97 97 N N/A 30.10 1019 2 2 N/A
5:39 am 05:39 Clear with Mist and Fog 36 2.2 35 1.7 97 97 N N/A 30.10 1019 3 5 N/A
5:53 am 05:53 Clear 36 2.2 35 1.7 97 97 N N/A 30.08 1019 7 11 N/A
6:17 am 06:17 Clear with Mist and Fog 35 1.7 34 1.1 96 96 N N/A 30.11 1020 2 3 N/A
6:36 am 06:36 Sunny with Mist and Fog 34 1.1 33 0.6 97 97 N N/A 30.12 1020 5 8 N/A
6:53 am 06:53 Sunny with Mist and Fog 36 2.2 35 1.7 97 97 N N/A 30.11 1020 4 6 N/A
7:53 am 07:53 Sunny 40 4.4 38 3.3 93 93 N N/A 30.13 1020 9 14 N/A
8:53 am 08:53 Sunny 45 7.2 39 3.9 80 80 NNE 7 11 30.13 1020 10 16 N/A
9:53 am 09:53 Sunny 49 9.4 40 4.4 71 71 VRB 3 6 30.15 1021 10 16 N/A
10:53 am 10:53 Sunny 53 11.7 41 5 64 64 E 7 11 30.15 1021 10 16 N/A
11:53 am 11:53 Sunny 54 12.2 39 3.9 57 57 VRB 3 6 30.16 1021 10 16 N/A
12:53 pm 12:53 Mostly Sunny 57 13.9 37 2.8 47 47 VRB 3 6 30.15 1021 10 16 N/A
1:53 pm 13:53 Partly Cloudy 59 15 39 3.9 48 48 NW 3 6 30.13 1020 10 16 N/A
2:53 pm 14:53 Mostly Sunny 60 15.6 35 1.7 39 39 N N/A 30.14 1021 10 16 N/A
3:53 pm 15:53 Mostly Cloudy 62 16.7 40 4.4 44 44 VRB 6 9 30.13 1020 10 16 N/A
4:53 pm 16:53 Sunny 61 16.1 38 3.3 43 43 NW 7 11 30.14 1021 10 16 N/A
5:53 pm 17:53 Sunny 60 15.6 37 2.8 42 42 N N/A 30.13 1020 10 16 N/A
6:53 pm 18:53 Sunny 59 15 37 2.8 44 44 N N/A 30.14 1021 10 16 N/A
7:53 pm 19:53 Sunny 57 13.9 48 8.9 72 72 N N/A 30.12 1020 10 16 N/A
8:53 pm 20:53 Clear 53 11.7 46 7.8 77 77 N N/A 30.13 1020 10 16 N/A
9:53 pm 21:53 Clear 51 10.6 47 8.3 86 86 N N/A 30.14 1021 10 16 N/A
10:53 pm 22:53 Clear 49 9.4 45 7.2 86 86 N N/A 30.16 1021 10 16 N/A
11:53 pm 23:53 Clear 50 10 47 8.3 89 89 N N/A 30.16 1022 10 16 N/A

Powered by AerisWeather